Track GOSAT (IBUKI) now! 10-day predictions GOSAT (IBUKI) is classified as:
1 33492U 09002A 26072.27441068 .00000290 00000-0 59599-4 0 9993 2 33492 98.0769 184.6184 0001121 83.0514 277.0818 14.67545339917399